• Join FlightAware (Why Join?)
  • Login
  • US Flag GB Flag 
00:03 EDT


 

Airport Tracker/Info


-or-


 

Live Flight TrackerFlight Track Log ✈ SWA1377 ✈ 24-Apr-2013 ✈ KSAT - KMDW

Flight Track Log - Related Links

Times and Time Zones

All times are in EDT time to prevent confusion due to time zone crossing. See the SWA1377 flight status page for this flight to view local times or setup timezone preferences in your user account.

Time Position Orientation Groundspeed Altitude Reporting Facility
EDT Latitude Longitude Course Direction KTS MPH feet Rate Location/Type
07:04 29.5425 -98.4519 42° Northeast 144 166 2,300  Level Houston Center
07:05 29.5889 -98.4047 42° Northeast 209 241 5,000 3,180 Climbing Houston Center
07:07 29.6664 -98.4042 360° North 277 319 9,100 3,420 Climbing Houston Center
07:08 29.7511 -98.4014 North 302 348 12,000 2,640 Climbing Houston Center
07:09 29.8475 -98.3992 North 343 395 14,500 2,820 Climbing Houston Center
07:10 29.9450 -98.3964 North 349 402 17,800 2,880 Climbing Houston Center
07:11 30.0503 -98.3931 North 382 440 20,400 2,880 Climbing Houston Center
07:12 30.1708 -98.3847 North 402 463 23,700 2,940 Climbing Houston Center
07:13 30.2847 -98.3667 North 411 473 26,400 2,340 Climbing Houston Center
07:14 30.3864 -98.3531 North 426 490 28,500 1,860 Climbing Houston Center
07:15 30.5078 -98.3344 North 432 497 30,200 1,680 Climbing Houston Center
07:16 30.6344 -98.3161 North 446 513 31,900 1,800 Climbing Houston Center
07:17 30.7647 -98.2964 North 461 531 33,900 1,920 Climbing Houston Center
07:18 30.8950 -98.2775 North 442 509 35,800 1,680 Climbing Fort Worth Center
07:19 31.0203 -98.2617 North 448 516 37,300 1,320 Climbing Fort Worth Center
07:20 31.1500 -98.2411 North 453 521 38,500 1,200 Climbing Fort Worth Center
07:21 31.2922 -98.2206 North 462 532 39,700 1,080 Climbing Fort Worth Center
07:22 31.4194 -98.1997 North 470 541 40,700 600 Climbing Fort Worth Center
07:23 31.5492 -98.1789 North 461 531 41,000 120 Climbing Fort Worth Center
07:24 31.6747 -98.1311 18° North 468 539 41,000  Level Fort Worth Center
07:25 31.7922 -98.0392 34° Northeast 478 550 41,000  Level Fort Worth Center
07:26 31.9094 -97.9469 34° Northeast 495 570 41,000  Level Fort Worth Center
07:27 32.0247 -97.8569 33° Northeast 500 575 41,000  Level Fort Worth Center
07:28 32.1292 -97.7764 33° Northeast 506 582 41,000  Level Fort Worth Center
07:29 32.2464 -97.6836 34° Northeast 506 582 41,000  Level Fort Worth Center
07:30 32.3636 -97.5978 32° Northeast 499 574 41,000  Level Fort Worth Center
07:31 32.4783 -97.5069 34° Northeast 499 574 41,000  Level Fort Worth Center
07:32 32.5953 -97.4133 34° Northeast 499 574 41,000  Level Fort Worth Center
07:33 32.7081 -97.3219 34° Northeast 499 574 41,000  Level Fort Worth Center
07:34 32.8269 -97.2281 34° Northeast 504 580 41,000  Level Fort Worth Center
07:35 32.9561 -97.1336 32° Northeast 502 578 41,000  Level Fort Worth Center
07:36 33.0708 -97.0539 30° Northeast 502 578 41,000  Level Fort Worth Center
07:37 33.1875 -96.9742 30° Northeast 496 571 41,000  Level Fort Worth Center
07:38 33.3061 -96.8889 31° Northeast 491 565 41,000  Level Fort Worth Center
07:39 33.4247 -96.8061 30° Northeast 491 565 41,000  Level Fort Worth Center
07:40 33.5433 -96.7231 30° Northeast 491 565 41,000  Level Fort Worth Center
07:41 33.6658 -96.6397 30° Northeast 496 571 41,000  Level Fort Worth Center
07:42 33.7947 -96.5411 32° Northeast 496 571 41,000  Level Fort Worth Center
07:43 33.9172 -96.4600 29° Northeast 496 571 41,000  Level Fort Worth Center
07:44 34.0375 -96.3708 32° Northeast 502 578 41,000  Level Fort Worth Center
07:45 34.1392 -96.2994 30° Northeast 496 571 41,000  Level Fort Worth Center
07:46 34.2614 -96.2097 31° Northeast 496 571 41,000  Level Fort Worth Center
07:47 34.3794 -96.1225 31° Northeast 496 571 41,000  Level Fort Worth Center
07:48 34.5017 -96.0353 30° Northeast 496 571 41,000  Level Fort Worth Center
07:49 34.6197 -95.9450 32° Northeast 496 571 41,000  Level Fort Worth Center
07:50 34.7353 -95.8369 38° Northeast 503 579 41,000  Level Fort Worth Center
07:51 34.8528 -95.7308 37° Northeast 517 595 41,000  Level Fort Worth Center
07:52 34.9700 -95.6247 37° Northeast 524 603 41,000  Level Fort Worth Center
07:53 35.0956 -95.5106 37° Northeast 519 597 41,000  Level Fort Worth Center
07:54 35.2511 -95.3658 37° Northeast 539 620 41,000  Level Memphis Center
07:55 35.3636 -95.2581 38° Northeast 529 609 41,000  Level Memphis Center
07:56 35.4806 -95.1503 37° Northeast 523 602 41,000  Level Memphis Center
07:57 35.5931 -95.0419 38° Northeast 523 602 41,000  Level Memphis Center
07:58 35.7078 -94.9333 38° Northeast 523 602 41,000  Level Memphis Center
07:59 35.8219 -94.8269 37° Northeast 518 596 41,000  Level Memphis Center
08:00 35.9364 -94.7203 37° Northeast 518 596 41,000  Level Memphis Center
08:01 36.0506 -94.6108 38° Northeast 518 596 41,000  Level Memphis Center
08:02 36.1628 -94.5011 38° Northeast 513 590 41,000  Level Memphis Center
08:03 36.2725 -94.3958 38° Northeast 506 582 41,000  Level Memphis Center
08:05 36.4708 -94.2058 38° Northeast 506 582 41,000  Level Kansas City Center
08:06 36.5803 -94.0983 38° Northeast 505 581 41,000  Level Kansas City Center
08:07 36.6928 -93.9894 38° Northeast 508 585 41,000  Level Kansas City Center
08:08 36.8053 -93.8797 38° Northeast 511 588 41,000  Level Kansas City Center
08:09 36.9250 -93.7614 38° Northeast 517 595 41,000  Level Kansas City Center
08:10 37.0394 -93.6486 38° Northeast 520 598 41,000  Level Kansas City Center
08:11 37.1528 -93.5367 38° Northeast 518 596 41,000  Level Kansas City Center
08:12 37.2672 -93.4242 38° Northeast 519 597 41,000  Level Kansas City Center
08:13 37.3817 -93.3111 38° Northeast 519 597 41,000  Level Kansas City Center
08:14 37.4978 -93.2033 36° Northeast 517 595 41,000  Level Kansas City Center
08:15 37.6389 -93.0767 35° Northeast 515 593 41,000  Level Kansas City Center
08:16 37.7539 -92.9650 38° Northeast 518 596 41,000  Level Kansas City Center
08:17 37.8711 -92.8564 36° Northeast 517 595 41,000  Level Kansas City Center
08:18 37.9903 -92.7456 36° Northeast 521 600 41,000  Level Kansas City Center
08:19 38.1117 -92.6303 37° Northeast 526 605 41,000  Level Kansas City Center
08:20 38.2322 -92.5172 36° Northeast 529 609 41,000  Level Kansas City Center
08:22 38.4731 -92.2861 37° Northeast 536 617 41,000  Level Kansas City Center
08:23 38.5925 -92.1703 37° Northeast 535 616 41,000  Level Kansas City Center
08:24 38.7125 -92.0547 37° Northeast 536 617 41,000  Level Kansas City Center
08:25 38.8322 -91.9422 36° Northeast 532 612 41,000  Level Kansas City Center
08:26 38.9475 -91.8283 38° Northeast 524 603 41,000  Level Kansas City Center
08:27 39.0644 -91.7161 37° Northeast 523 602 41,000  Level Kansas City Center
08:28 39.1722 -91.6106 37° Northeast 519 597 41,000 -480 Level Kansas City Center
08:29 39.2892 -91.4408 48° Northeast 548 631 40,100 -960 Descending Kansas City Center
08:30 39.3211 -91.2522 78° East 539 620 39,100 -1,020 Descending Kansas City Center
08:31 39.3533 -91.0667 77° East 531 611 38,100 -960 Descending Kansas City Center
08:32 39.3911 -90.8803 75° East 532 612 37,200 -1,080 Descending Kansas City Center
08:33 39.4317 -90.6936 74° East 535 616 35,900 -1,080 Descending Kansas City Center
08:34 39.4872 -90.5161 68° East 539 620 35,000 -540 Descending Kansas City Center
08:36 39.6164 -90.4175 30° Northeast 542 624 34,800 -600 Descending Kansas City Center
08:37 39.7619 -90.3369 23° Northeast 540 621 33,800 -1,020 Descending Kansas City Center
08:38 39.8967 -90.2581 24° Northeast 535 616 32,800 -1,020 Descending Kansas City Center
08:38 40.0033 -90.1956 24° Northeast 531 611 32,000 -1,020 Descending Chicago Center
08:39 40.1394 -90.1158 24° Northeast 534 615 31,000 -780 Descending Chicago Center
08:40 40.2728 -90.0364 24° Northeast 530 610 30,500 -1,200 Descending Chicago Center
08:41 40.4006 -89.9311 32° Northeast 550 633 28,600 -2,100 Descending Chicago Center
08:42 40.5236 -89.7594 47° Northeast 531 611 26,200 -2,100 Descending Chicago Center
08:43 40.6194 -89.6272 46° Northeast 504 580 24,400 -1,740 Descending Chicago Center
08:45 40.7050 -89.5108 46° Northeast 482 555 22,700 -1,800 Descending Chicago Center
08:46 40.7919 -89.3903 46° Northeast 460 529 20,800 -2,520 Descending Chicago Center
08:47 40.8931 -89.2508 46° Northeast 440 506 17,600 -1,800 Descending Chicago Center
08:48 40.9714 -89.1386 47° Northeast 417 480 17,100 -720 Descending Chicago Center
08:49 41.0494 -89.0278 47° Northeast 389 448 16,200 -1,500 Descending Chicago Center
08:50 41.1231 -88.9242 47° Northeast 387 445 14,000 -2,340 Descending Chicago Center
08:51 41.1936 -88.8236 47° Northeast 377 434 11,500 -1,860 Descending Chicago Center
08:52 41.2589 -88.7292 47° Northeast 348 400 10,300 -1,260 Descending Chicago Center
08:53 41.3133 -88.6506 47° Northeast 293 337 9,000 -1,380 Descending Chicago Center
08:54 41.3667 -88.5769 46° Northeast 282 325 7,500 -1,500 Descending Chicago Center
08:55 41.4167 -88.5044 47° Northeast 271 312 6,000 -780 Descending Chicago Center
08:56 41.4683 -88.4125 53° Northeast 262 302 6,000  Level Chicago Center
08:57 41.4864 -88.3147 76° East 271 312 6,000 -480 Level Chicago Center
08:58 41.5044 -88.2175 76° East 270 311 5,100 -540 Descending Chicago Center
08:59 41.5222 -88.1208 76° East 267 307 4,900 -120 Descending Chicago Center
09:00 41.5397 -88.0242 76° East 264 304 4,900  Level Chicago Center
09:01 41.5583 -87.9275 76° East 265 305 5,000  Climbing Chicago Center
09:02 41.5758 -87.8311 76° East 267 307 5,000  Level Chicago Center
09:03 41.5936 -87.7364 76° East 266 306 5,000  Level Chicago Center
09:04 41.6039 -87.6556 80° East 244 281 5,000 -360 Level Chicago Center
09:05 41.5956 -87.5664 97° East 240 276 4,300 -780 Descending Chicago Center
09:06 41.6483 -87.5858 345° North 217 250 3,400 -660 Descending Chicago Center
09:07 41.6928 -87.6183 331° Northwest 198 228 3,000 -480 Descending Chicago Center
09:08 41.7167 -87.6500 315° West 162 186 2,600 -720 Descending Chicago TRACON
09:09 41.7500 -87.7000 312° West 125 144 1,700 -780 Descending Chicago TRACON
09:10 41.7667 -87.7333 304° West 123 142 1,000 -780 Descending Chicago TRACON